Время (UTC), дата Ветер
(°,м/с) 
Видим.   Явления Облачность Т
(°С)
Тd
(°С)
f(%) Тe
(°С)
Pmin
(гПа)
dP
(гПа)
Po
(мм)
O2
(г/м3)
Тmin Tmax R s Состояние
почвы
00 08.10.14 100 (В) 20000 м    ясно 
+2.5 -2 72 1031.5  -1  732  292           
03 08.10.14 090 (В) 20000 м    3/0 средняя 
[Ac trans]
+1.8 -2 76 -2  1031.1  -0.5  731  293  +1.6        сухая 
06 08.10.14 110 (В) 9-12{12}  20000 м    8/0 средняя 
[Ac trans]
+6.3 +0.2 65 +3  1030.2  731  288           
09 08.10.14 110 (В) 9-12{15}  20000 м    9/4 600 м средняя 
[Sc|Ac trans]
+10.1 +2.5 59 +8  1029.1  -0.3  731  284           
12 08.10.14 120 (ЮВ) 9-13{14}  20000 м    9/5 600 м средняя 
[Sc|Ac trans]
+11 +3.2 59 +9  1028.4  -0.6  731  283           
15 08.10.14 110 (В) 7{13}  20000 м    9/4 1000 м средняя 
[Sc|Ac trans]
+9.1 +3.6 68 +7  1028.3  -0.4  731  284    +11.2       
18 08.10.14 100 (В) 7{10}  20000 м    8/4 600 м средняя 
[Sc|Ac trans]
+8.2 +4.3 76 +6  1027.6  -0.8  730  285           
21 08.10.14 100 (В) 7{10}  20000 м    10/8 540 м средняя 
[Sc|Ac und]
+7.5 +5 84 +5  1027  -0.7  729  285           
00 09.10.14 110 (В) 6{11}  20000 м    10/6 210 м средняя 
[St|Ac und]
+7.9 +6.2 89 +6  1026.3  -0.6  729  284           
03 09.10.14 110 (В) 20000 м    10/8 200 м средняя 
[St|Ac und]
+8 +6.4 90 +6  1026.6  0.3  729  284  +6.9        сухая 
06 09.10.14 110 (В) 10 км    10/10 180 м 
[St]
+8.1 +6.6 90 +6  1027.3  0.7  730  284          замёрзшая 
09 09.10.14 110 (В) 7{10}  20000 м    10/8 180 м средняя 
[St|Ac und]
+9.7 +7.5 86 +8  1027.4  0.4  730  283           
12 09.10.14 100 (В) 8-10{11}  20000 м    10/10 270 м 
[St]
+10.5 +7.4 81 +9  1027.2  730  282           
15 09.10.14 090 (В) 20000 м    10/10 270 м 
[St]
+10.3 +8.4 88 +9  1027.3  0.1  730  282    +11.3       
18 09.10.14 100 (В) 20000 м    10/10 240 м 
[St]
+10.1 +8.7 91 +9  1027.5  0.1  730  282           
21 09.10.14 110 (В) 20000 м    10/10 120 м 
[St]
+10 +8.9 93 +9  1027.2  -0.3  730  282           
00 10.10.14 120 (ЮВ) 20000 м    10/10 240 м 
[St]
+9.1 +7.7 91 +8  1027.6  0.2  730  283           
03 10.10.14 120 (ЮВ) 20000 м    10/10 240 м 
[St]
+9.1 +7.7 91 +8  1027.6  0.2  730  283           
06 10.10.14 120 (ЮВ) 8-10  20000 м    6/6 300 м 
[St]
+10.5 +7.6 82 +9  1028.4  731  282  +6.8         
09 10.10.14 110 (В) 9-12{13}  20000 м    8/8 700 м 
[Sc]
+14 +8.1 68 +13  1027.8  731  279           
12 10.10.14 110 (В) 8-11{14}  20000 м    8/8 840 м 
[Sc]
+13.9 +8 68 +13  1027.2  -0.5  730  279           
15 10.10.14 100 (В) 6{12}  20000 м    1/0 средняя 
[Ac trans]
+11 +7 76 +10  1027.6  -0.2  730  282    +14.7       
18 10.10.14 110 (В) 20000 м    ясно 
+9.1 +5.7 79 +8  1027.6  -0.3  730  284           
21 10.10.14 120 (ЮВ) 20000 м    ясно 
+7.9 +5 82 +6  1026.7  -1.1  729  285           
00 11.10.14 120 (ЮВ) 20000 м    ясно 
+7.3 +5.6 89 +5  1026  -0.8  729  285           
03 11.10.14 140 (ЮВ) 20000 м    ясно 
+6 +4.2 88 +4  1025.6  -0.7  728  286  +5.6        сухая 
06 11.10.14 150 (ЮВ) 8-10{11}  20000 м    3/3 600 м 
[Sc]
+9.5 +6 79 +7  1025.5  0.6  729  283           
09 11.10.14 130 (ЮВ) 8-12{14}  20000 м    ясно 
+15.9 +5.3 49 +15  1023.3  -0.9  728  276           
12 11.10.14 120 (ЮВ) 8-11{12}  20000 м    ясно 
+17.1 +6.1 48 +17  1021.7  -1.2  727  275           
15 11.10.14 120 (ЮВ) 4{11}  20000 м    ясно 
+13.5 +6 60 +13  1021.8  -0.5  727  278    +17.3       
18 11.10.14 120 (ЮВ) 20000 м    ясно 
+9.3 +5.2 76 +8  1021.8  -0.8  726  282           
21 11.10.14 140 (ЮВ) 20000 м    ясно 
+7.6 +3.7 76 +6  1021.3  -0.8  725  284           
00 12.10.14 180 (Ю) 20000 м    ясно 
+4.8 +3.2 89 +3  1021  -0.8  725  286           
03 12.10.14 120 (ЮВ) 20000 м    ясно 
+5 +3.8 92 +3  1020.6  -0.3  725  286  +4.4        сухая 
06 12.10.14 110 (В) 20000 м    ясно 
+10 +6.3 78 +10  1020.2  0.5  725  281           
09 12.10.14 110 (В) 20000 м    ясно 
+16.4 +8.1 58 +17  1018.5  -0.5  725  274           
12 12.10.14 090 (В) 20000 м    ясно 
+18.7 +7.5 48 +19  1017.3  -0.7  724  272           
15 12.10.14 110 (В) 20000 м    ясно 
+11.5 +6.5 71 +11  1018.6  724  279    +19       
18 12.10.14 140 (ЮВ) 20000 м    ясно 
+8.7 +5.7 81 +9  1018.9  -0.2  724  282           
21 12.10.14 140 (ЮВ) 20000 м    ясно 
+7.5 +6 90 +6  1018.3  -0.8  723  283           
00 13.10.14 160 (Ю) 20000 м    ясно 
+7.7 +5.6 87 +7  1018.2  0.1  723  282           
03 13.10.14 140 (ЮВ) 20000 м    1/0 средняя 
[Ac trans]
+6.5 +5.5 93 +6  1018.6  723  284  +5.8        сухая 
06 13.10.14 190 (Ю) 20000 м    1/0 верхняя 
[Ci fib]
+14.1 +8.2 68 +15  1017.6  0.6  724  276  +5.8         
09 13.10.14 040 (СВ) 20000 м    1/0 средняя 
[Ac trans]
+18.5 +8.7 53 +19  1016.7  0.1  724  272           
12 13.10.14 030 (СВ) 20000 м    4/0 верхняя 
[Ci fib]
+21.5 +6.1 37 +22  1015.6  -0.6  723  269           
15 13.10.14 070 (В) 20000 м    1/0 средняя 
[Ac trans]
+14.3 +6.5 59 +15  1017.2  0.3  723  276    +21.6       
18 13.10.14 100 (В) 20000 м    ясно 
+10.8 +7.1 78 +11  1017.8  0.1  723  279           
21 13.10.14 240 (ЮЗ) 20000 м    1/0 средняя 
[Ac trans]
+12.4 +6.6 68 +13  1017.4  0.1  723  278           
00 14.10.14 280 (З) 20000 м    ясно 
+12.9 +9 77 +14  1017.3  723  277           
03 14.10.14 280 (З) 20000 м    ясно 
+11.1 +8.7 85 +11  1018  0.4  724  279  +8.6        сухая 
06 14.10.14 280 (З) 20000 м    ясно 
+17.3 +8.8 57 +18  1017.4  0.5  724  273           
09 14.10.14 320 (СЗ) 20000 м    ясно 
+21.1 +6.3 38 +21  1016.5  -0.2  724  270           
12 14.10.14 360 (С) 20000 м    ясно 
+22.2 +4.1 31 +22  1015.3  -0.9  723  269           
15 14.10.14 040 (СВ) 20000 м    ясно 
+16.6 +4.7 45 +17  1016.6  0.2  723  274    +22.4       
18 14.10.14 130 (ЮВ) 20000 м    ясно 
+13.3 +6.6 64 +14  1017.1  723  277           
21 14.10.14 120 (ЮВ) 20000 м    ясно 
+12.5 +7.3 71 +13  1016.5  -0.7  723  277           
00 15.10.14 160 (Ю) 20000 м    ясно 
+11.1 +7.5 78 +11  1016.6  -0.2  723  278           
03 15.10.14 130 (ЮВ) 20000 м    ясно 
+10.5 +7.4 81 +10  1016.8  723  279  +9.1        сухая 
06 15.10.14 140 (ЮВ) 20000 м    3/0 верхняя 
[Ci fib]
+15.6 +8.8 64 +16  1016.1  0.3  723  274           
09 15.10.14 110 (В) 20000 м    5/0 верхняя 
[Ci]
+21 +9.2 47 +22  1014.1  -1  722  269           
12 15.10.14 080 (В) 20000 м    8/0 верхняя 
[Ci fib]
+21.9 +5.3 34 +22  1012.7  -1.2  721  268           
15 15.10.14 100 (В) 20000 м    5/0 средняя, верхняя 
[Ac trans|Ci fib]
+15.4 +7 57 +15  1014.4  0.5  722  274    +22.9       
18 15.10.14 170 (Ю) 20000 м    5/0 средняя 
[Ac trans]
+13.7 +7.4 66 +13  1014.7  722  276           
21 15.10.14 170 (Ю) 20000 м    10/0 средняя 
[Ac und]
+13.5 +7.6 67 +15  1013.9  -0.8  721  275           
00 16.10.14 220 (ЮЗ) 10 км    4/0 средняя 
[Ac trans]
+12.3 +9.2 81 +13  1014.5  0.4  721  276           
03 16.10.14 290 (З) 20000 м    6/0 средняя 
[Ac trans]
+14.3 +8.4 68 +14  1013.5  -0.6  721  274  +11.2        сухая 
06 16.10.14 270 (З) 6-10{12}  20000 м    9/4 600 м средняя 
[Sc|Ac trans]
+16.6 +11.9 74 +21  1014  0.9  721  272           
09 16.10.14 270 (З) 5{11}  20000 м    8/3 600 м средняя 
[Sc|Ac trans]
+19 +12.1 64 +24  1013.4  0.1  721  269           
12 16.10.14 270 (З) 5{11}  20000 м    9/4 600 м кучево-дожд., средняя 
[Cb calv|Ac trans]
+18.9 +11.3 61 +23  1012.6  -0.8  721  269           
15 16.10.14 250 (З) 2{10}  20000 м    4/0 средняя 
[Ac trans]
+15.3 +10.8 74 +19  1013  -0.2  721  273    +20.4       
18 16.10.14 240 (ЮЗ) 20000 м    4/0 средняя 
[Ac trans]
+12.2 +10.8 91 +16  1013.2  -0.3  720  276           
21 16.10.14 тихо ()   20000 м    ясно 
+11.6 +10.3 92 +14  1011.8  -1.5  719  276           
00 17.10.14 180 (Ю) 20000 м    ясно 
+11 +9.9 93 +13  1010.3  -1.6  718  276           
03 17.10.14 180 (Ю) 20000 м    4/0 средняя 
[Ac trans]
+11.4 +10 91 +13  1008.9  -1.2  717  275  +10.7        сухая 
06 17.10.14 270 (З) 6-10{12}  20000 м    9/4 600 м средняя 
[Sc|Ac trans]
+16.6 +11.9 74 +21  1014  0.9  721  272           
09 17.10.14 010 (С) 10 км  слаб. ливневой дождь  10/5 1000 м кучево-дожд. 
[Cb cap]
+16.5 +12.8 79 +24  1006  -0.8  716  269           
12 17.10.14 260 (З) 10 км  слаб. ливневой дождь  10/6 900 м кучево-дожд., средняя 
[Cb cap|Ac und]
+13.7 +11.6 87 +17  1007.7  1.1  717  273           
15 17.10.14 250 (З) 20000 м  в посл. час ливневой дождь  10/5 1000 м кучево-дожд., средняя 
[Cb calv|Ac und]
+12.7 +11 89 +15  1008.4  0.5  717  274    +17.4     
18 17.10.14 280 (З) 8-12  10 км  слаб. ливневой дождь  10/8 240 м средняя 
[St|Ac und]
+11.8 +10.4 91 +13  1009.6  718  275           
21 17.10.14 280 (З) 6{12}  10 км  {ливн. осадки}  10/6 660 м кучево-дожд., средняя 
[Cb calv|Ac und]
+10.3 +8.9 91 +10  1010.8  0.8  718  277           
00 18.10.14 250 (З) 10 км  {ливн. осадки}  1/1 300 м 
[St]
+7.9 +6.8 93 +7  1011.3  718  280           
03 18.10.14 200 (Ю) 4000 м  дымка  3/0 средняя 
[Ac trans]
+6.7 +5.9 95 +8  1010.5  -0.9  718  281  +6.6    0.5     
06 18.10.14 170 (Ю) 20000 м    8/0 верхняя 
[Ci fib]
+13 +8.3 73 +13  1008.4  -0.9  717  274  +6         
09 18.10.14 080 (В) 20000 м    8/0 верхняя 
[Ci fib]
+16.6 +6.6 52 +18  1005.6  -2  715  271           
12 18.10.14 330 (СЗ) 20000 м    8/4 1000 м кучево-дожд., средняя 
[Cb calv|Ac und]
+15.2 +7.4 60 +15  1004.7  -1.1  715  271           
15 18.10.14 330 (СЗ) 10 км  слаб. ливневой дождь  10/8 600 м кучево-дожд., средняя 
[Cb cap|Ac und]
+11.1 +10.1 94 +13  1005.3  -0.1  715  275    +16.9     
18 18.10.14 020 (С) 10 км  слаб. ливневой дождь  10/6 720 м кучево-дожд., средняя 
[Cb cap|Ac und]
+10.5 +9.8 95 +12  1005.2  -0.2  714  275           
21 18.10.14 010 (С) 9-13{13}  4000 м  слаб. ливневой дождь  ясно 100 м 
+6.4 +5.8 96 +3  1007.6  1.4  715  281           
00 19.10.14 350 (С) 9-13  10 км  слаб. ливневой дождь  10/8 120 м кучево-дожд., средняя 
[Cb cap|Ac und]
+3.2 +2.4 95 -1  1011.6  3.2  718  285           
03 19.10.14 320 (СЗ) 3000 м  слаб. ливневой дождь  10/8 100 м кучево-дожд., средняя 
[Cb cap|Ac und]
+1.8 +1 95 -1  1015.4  3.2  720  288  +1.5    25     
06 19.10.14 320 (СЗ) 2000 м  дымка{ливн. осадки}  10/8 180 м кучево-дожд., средняя 
[Cb cap|Ac und]
-0.5 -1.8 91 -4  1019.3  3.2  723  292  -0.6         
09 19.10.14 320 (СЗ) 5{11}  20000 м    10/8 420 м кучево-дожд., средняя 
[Cb calv|Ac und]
-0.4 -3.1 82 -3  1022.1  2.6  725  293           
12 19.10.14 300 (СЗ) 10 км    10/8 240 м кучево-дожд., средняя 
[Cb calv|Ac und]
-0.4 -2.4 86 -3  1023.7  1.6  726  293           
15 19.10.14 320 (СЗ) 10 км    10/8 400 м кучево-дожд., средняя 
[Cb calv|Ac und]
-0.6 -2.9 84 -3  1025.9  2.1  727  294    +1.8     
18 19.10.14 320 (СЗ) 10 км  {ливн. осадки}  10/8 270 м кучево-дожд., средняя 
[Cb calv|Ac und]
-1 -3.1 86 -3  1027.7  1.6  729  295           
21 19.10.14 350 (С) 10 км    10/8 240 м кучево-дожд., средняя 
[Cb calv|Ac und]
-1.2 -3 88 -2  1027.7  729  295           
00 20.10.14 250 (З) 20000 м    10/6 480 м средняя 
[Sc|Ac und]
-1.2 -4.3 79 -3  1027.4  -0.4  728  295           
03 20.10.14 230 (ЮЗ) 20000 м    10/6 300 м средняя 
[St|Ac und]
-1.3 -4.2 81 -3  1026.9  -0.4  728  295  -1.4    0.0    влажная 
06 20.10.14 180 (Ю) 20000 м    6/3 300 м средняя 
[Sc|Ac trans]
+1.2 -2.6 76 1025.5  -0.9  727  292           
09 20.10.14 250 (З) 20000 м    4/0 верхняя 
[Ci fib]
+7.9 -2.3 48 +8  1022.4  -1.6  726  285           
12 20.10.14 260 (З) 7-10{10}  20000 м    8/1 600 м верхняя 
[Sc|Ci fib]
+8.9 +1.6 60 +7  1020.6  -1.5  725  283           
15 20.10.14 220 (ЮЗ) 3{10}  20000 м    3/0 верхняя 
[Ci fib]
+4.4 +1.5 81 +3  1020  -1.4  724  287    +10.3       
18 20.10.14 170 (Ю) 20000 м    3/0 верхняя 
[Ci fib]
+4.4 +1.8 83 +4  1019  -0.9  723  286           
21 20.10.14 170 (Ю) 20000 м    ясно 
+2.9 +1 87 +4  1018.6  -0.7  723  288           
00 21.10.14 190 (Ю) 20000 м    ясно 
+3.2 +1.1 86 +2  1016.7  -1.7  721  287           
03 21.10.14 220 (ЮЗ) 20000 м    8/3 600 м средняя 
[Sc|Ac trans]
+4.1 +2.1 87 +3  1016.2  -0.3  721  286  +1.7         
06 21.10.14 220 (ЮЗ) 20000 м    8/3 1000 м средняя 
[Sc|Ac trans]
+8.7 +4.5 75 +8  1014.6  -0.7  721  281           
09 21.10.14 250 (З) 20000 м    6/3 1000 м средняя 
[Sc|Ac trans]
+13 +3.1 51 +12  1013.1  -0.6  720  276           
12 21.10.14 250 (З) 7-12{12}  20000 м    8/3 1000 м средняя 
[Sc|Ac trans]
+13 +3.7 53 +12  1012.1  -1  719  276           
15 21.10.14 250 (З) 5{13}  20000 м    3/0 средняя 
[Ac trans]
+10.1 +5 71 +9  1012.9  0.3  720  279    +13.6       
18 21.10.14 260 (З) 20000 м    3/0 средняя 
[Ac trans]
+9.9 +4 67 +9  1012.6  -0.3  719  279           
21 21.10.14 140 (ЮВ) 20000 м    8/0 средняя 
[Ac trans]
+9.1 +5.3 77 +9  1011.3  -1.4  718  279           
00 22.10.14 320 (СЗ) 20000 м    8/0 средняя 
[Ac trans]
+9.4 +4.3 70 +9  1010.7  -0.5  718  279           
03 22.10.14 250 (З) 20000 м  слаб. ливневой дождь  10/8 1000 м кучево-дожд., средняя 
[Cb cap|Ac und]
+9.2 +5.4 77 +9  1009.7  -1  717  279  +7.9    0.0     
06 22.10.14 340 (С) 20000 м  в посл. час ливневой дождь  10/5 1000 м кучево-дожд., средняя 
[Cb calv|Ac und]
+9.3 +6.1 80 +9  1012.5  2.7  719  279           
09 22.10.14 290 (З) 20000 м    8/3 1000 м средняя 
[Sc diur, vesp|Ac trans]
+13.7 +6.3 61 +13  1011.4  -0.3  719  275           
12 22.10.14 330 (СЗ) 4{11}  20000 м    3/0 средняя 
[Ac trans]
+15.7 +7.3 57 +16  1010.7  -0.3  719  273           
15 22.10.14 010 (С) 20000 м    3/0 средняя 
[Ac trans]
+11.1 +8.1 82 +12  1012.9  1.3  720  277    +16.4       
18 22.10.14 150 (ЮВ) 20000 м    5/0 средняя 
[Ac trans]
+10 +7.9 87 +10  1014.3  1.2  721  279           
21 22.10.14 190 (Ю) 20000 м    ясно 
+7.8 +6.1 89 +7  1014.4  -0.4  720  281           
00 23.10.14 200 (Ю) 20000 м    ясно 
+8.2 +4.9 80 +8  1013.7  -0.6  720  281           
03 23.10.14 180 (Ю) 20000 м    1/0 средняя 
[Ac trans]
+9.4 +0.9 55 +9  1013.3  -0.2  720  280  +7.5         
06 23.10.14 300 (СЗ) 20000 м    5/0 верхняя 
[Ci fib]
+17.3 +0.8 33 +18  1013.4  1.5  721  273           
09 23.10.14 120 (ЮВ) 20000 м    4/0 верхняя 
[Ci fib]
+20.3 +1.5 29 +20  1012.8  721  270           
12 23.10.14 050 (СВ) 20000 м    4/0 верхняя 
[Ci fib]
+20.5 +1.4 28 +21  1012.2  -0.6  721  270           
15 23.10.14 030 (СВ) 20000 м    5/0 средняя 
[Ac trans]
+14 +7.8 66 +14  1014.1  0.7  721  275    +20.8       
18 23.10.14 030 (СВ) 1500 м  дымка  9/6 210 м средняя 
[St|Ac trans]
+8.8 +7.9 94 +8  1015.7  0.7  722  280           
21 23.10.14 060 (СВ) 0200 м  туман  ?/?  
+5.6 +4.9 95 +4  1017.4  0.9  722  284           
00 24.10.14 060 (СВ) 0200 м  слаб. морось{туман}  ?/?  
+3.2 +2.6 96 +1  1018.5  0.5  723  287           
03 24.10.14 060 (СВ) 0200 м  слаб. морось{туман}  ?/?  
+1 +0.4 96 -2  1020.4  1.4  724  290  +1    0.4     
06 24.10.14 060 (СВ) 0200 м  слаб. морось{туман}  ?/?  
-0.6 -1.1 96 -4  1022.9  725  293  -0.6         
09 24.10.14 070 (В) 0200 м  слаб. переохл. морось (гололёд){туман} [диам. гололёда 1 мм]  ?/?  
-1 -1.5 96 -4  1024.1  1.1  726  294           
12 24.10.14 090 (В) 2000 м  дымка{морось, туман} [диам. гололёда 3 мм]  10/10 210 м 
[St]
-0.8 -1.4 96 -4  1024  -0.1  726  293           
15 24.10.14 090 (В) 4000 м  дымка  10/10 200 м 
[St]
-0.9 -1.4 96 -4  1024.2  0.2  726  294    +1  0.6     
18 24.10.14 090 (В) 4000 м  дымка  10/8 150 м средняя 
[St|Ac und]
-1.8 -2.3 96 -6  1024.3  -0.2  726  295           
21 24.10.14 070 (В) 2000 м  слаб. переохл. дождь (гололёд) [диам. гололёда 5 мм]  10/8 120 м средняя 
[Frnb|As op]
-3 -3.7 95 -6  1025.2  0.6  726  296           
00 25.10.14 080 (В) 2100 м  слаб. ливневой снег  10/8 120 м кучево-дожд., средняя 
[Cb cap|Ac und]
-3.7 -4.4 95 -6  1026.1  0.8  727  297           
03 25.10.14 070 (В) 1200 м  ливневой снег  10/6 100 м кучево-дожд., средняя 
[Cb cap|Ac und]
-4.7 -5.5 94 -7  1026.7  0.3  727  299  -4.7    12     
06 25.10.14 070 (В) 3000 м  слаб. ливневой снег  10/8 120 м кучево-дожд., средняя 
[Cb cap|Ac und]
-4.7 -5.3 96 -6  1027  0.1  727  299  -4.8         
09 25.10.14 080 (В) 10 км  в посл. час ливневой снег [диам. гололёда 6 мм]  10/8 210 м кучево-дожд., средняя 
[Cb calv|Ac und]
-4.7 -5.5 94 -7  1031.1  730  300           
12 25.10.14 080 (В) 20000 м  {ливн. осадки} [диам. гололёда 6 мм]  10/8 180 м кучево-дожд., средняя 
[Cb calv|Ac und]
-4.7 -5.6 94 -6  1031.9  0.8  731  300           
15 25.10.14 090 (В) 20000 м    10/8 240 м кучево-дожд., средняя 
[Cb calv|Ac und]
-6 -7 93 -7  1033.3  1.1  732  302    -4.6     
18 25.10.14 090 (В) 20000 м    6/6 330 м 
[St]
-7.4 -8.5 92 -9  1034.4  0.7  732  304           
21 25.10.14 110 (В) 20000 м    3/0 средняя 
[Ac trans]
-9.8 -11.1 90 -12  1034.6  -0.3  732  307           
00 26.10.14 090 (В) 20000 м    ясно 
-9.5 -10.8 90 -11  1034.7  0.1  732  307           
03 26.10.14 100 (В) 10 км    1/1 200 м 
[St]
-10.6 -12 89 -12  1035.7  0.7  733  308  -10.8      равномерный
мокрый или
старый снег
100% 
06 26.10.14 090 (В) 10 км  [диам. гололёда 6 мм]  6/6 240 м 
[St]
-9.2 -10.5 90 -12  1036.5  1.1  734  307  -11.1         
09 26.10.14 100 (В) 20000 м  [диам. гололёда 6 мм]  10/6 270 м средняя 
[St|Ac und]
-7 -8.2 91 -11  1036.2  0.2  734  304           
12 26.10.14 090 (В) 20000 м  [диам. гололёда 6 мм]  10/6 270 м средняя 
[St|Ac und]
-6.9 -8.1 91 -10  1036.2  0.1  734  304           
15 26.10.14 090 (В) 20000 м    10/8 210 м средняя 
[St|Ac und]
-8.8 -10 91 -13  1037.4  0.7  734  307    -6.4       
18 26.10.14 090 (В) 20000 м  [диам. гололёда 6 мм]  10/8 210 м средняя 
[St|Ac und]
-8.7 -10 90 -12  1037  -0.4  734  306           
21 26.10.14 110 (В) 10 км  [диам. гололёда 6 мм]  10/8 180 м средняя 
[St|Ac und]
-7.7 -8.8 92 -10  1035.9  -0.8  733  305           
00 27.10.14 110 (В) 20000 м  [диам. гололёда 6 мм]  10/8 210 м средняя 
[St|Ac und]
-5.7 -6.7 93 -9  1034.7  -0.7  733  302           
03 27.10.14 110 (В) 20000 м    10/6 300 м средняя 
[St|Ac und]
-4.6 -5.6 93 -8  1034.5  0.1  733  301  -9.8      равномерный
мокрый или
старый снег
100% 
06 27.10.14 100 (В) 10 км  [диам. гололёда 6 мм]  10/6 240 м средняя 
[St|Ac und]
-3.1 -4 94 -6  1035  0.1  733  299           
09 27.10.14 110 (В) 8-11{11}  10 км  [диам. гололёда 6 мм]  10/8 100 м средняя 
[St|Ac und]
-1.5 -2.3 94 -6  1034.4  0.1  733  297           
12 27.10.14 100 (В) 7{11}  4000 м  дымка  10/8 120 м средняя 
[St|Ac und]
-0.8 -1.5 95 -5  1033.7  -0.5  733  296           
15 27.10.14 090 (В) 6{10}  0500 м  туман  ?/?  
-0.5 -1.1 96 -4  1033.8  -0.1  733  296    -0.5       
18 27.10.14 100 (В) 10-13  5000 м  дымка{туман}  10/10 120 м 
[St]
+0 -0.6 96 -5  1033.1  -0.5  733  295           
21 27.10.14 100 (В) 11-16{16}  0700 м  туман  ?/?  
+0.2 -0.4 96 -5  1031.8  -1.2  732  295           
00 28.10.14 100 (В) 9-13{16}  0200 м  туман  ?/?  
+0.4 -0.1 96 -4  1031.1  -0.6  731  294           
03 28.10.14 100 (В) 10  3000 м  дымка{туман}  10/10 100 м 
[St]
+0.5 -0.1 96 -4  1031.2  -0.1  731  294  -0.5         
06 28.10.14 110 (В) 9-12  20000 м  {туман}  10/6 210 м 
[St]
+1.3 +0.7 96 -3  1031.6  0.5  732  293           
09 28.10.14 100 (В) 11-14{16}  20000 м    10/8 240 м средняя 
[St|Ac und]
+2.8 +1.2 89 -2  1031.2  0.1  732  292           
12 28.10.14 110 (В) 11-15{17}  20000 м    10/8 270 м средняя 
[St|Ac und]
+3.7 +1.5 86 -1  1030.8  -0.2  731  291           
15 28.10.14 110 (В) 20000 м    10/8 330 м средняя 
[St|Ac und]
+4.1 +2.4 89 1030.5  0.1  731  290    +4.1       
18 28.10.14 110 (В) 10-14{14}  20000 м    10/8 240 м средняя 
[St|Ac und]
+3.9 +2.3 89 1030  -0.6  731  290           
21 28.10.14 120 (ЮВ) 8-11{14}  20000 м    10/8 300 м средняя 
[St|Ac und]
+3.7 +2.2 90 1029.4  -0.6  731  290           
00 29.10.14 120 (ЮВ) 7{12}  20000 м    10/8 420 м средняя 
[St|Ac und]
+3.5 +2.3 92 1028.5  -0.9  730  290           
03 29.10.14 110 (В) 20000 м    10/5 300 м средняя 
[Sc|Ac und]
+3.4 +2.4 93 +1  1028.1  -0.4  730  290  +3.3         
06 29.10.14 120 (ЮВ) 7-10{10}  20000 м    10/6 420 м средняя 
[Sc|Ac und]
+4.4 +2.8 89 +1  1028.7  0.7  730  289           
09 29.10.14 130 (ЮВ) 9-12{13}  20000 м    10/6 450 м средняя 
[Sc|Ac und]
+6.1 +2.5 78 +3  1027.8  -0.5  730  287           
12 29.10.14 120 (ЮВ) 8-11{13}  20000 м    10/5 540 м средняя 
[Sc|Ac und]
+6.7 +2.9 77 +4  1026.9  -0.7  729  286           
15 29.10.14 120 (ЮВ) 20000 м    10/6 420 м средняя 
[Sc|Ac und]
+5.6 +3.8 88 +3  1026.8  -0.3  729  287    +7.1       
18 29.10.14 120 (ЮВ) 7{11}  20000 м    10/8 450 м средняя 
[Sc|Ac und]
+5.6 +4.1 90 +3  1026.2  -0.5  729  287           
21 29.10.14 110 (В) 8-10{14}  20000 м    10/6 420 м средняя 
[Sc|Ac und]
+5.7 +4 89 +3  1025.3  -0.9  728  287           
00 30.10.14 120 (ЮВ) 8-12{12}  20000 м    10/8 450 м средняя 
[Sc|Ac und]
+5.6 +3.6 87 +3  1024.1  -1.1  727  286           
03 30.10.14 120 (ЮВ) 20000 м    10/8 300 м средняя 
[Sc|Ac und]
+5.5 +3 84 +2  1023.5  -0.6  727  286  +5.4         
06 30.10.14 120 (ЮВ) 7{12}  20000 м    ясно 450 м средняя 
[Sc|Ac und]
+6.4 +3.9 84 +4  1023.3  727  285           
09 30.10.14 110 (В) 8-12{12}  20000 м    ясно 400 м средняя 
[St|Ac und]
+7.7 +5.3 85 +5  1022.1  726  284           
12 30.10.14 110 (В) 9-12{14}  20000 м    10/8 210 м средняя 
[St|Ac und]
+7.9 +6 88 +5  1020.9  -1.1  725  283           
15 30.10.14 110 (В) 20000 м    10/8 150 м средняя 
[St|Ac und]
+7.7 +6.8 94 +5  1020.4  -0.5  725  283    +8.8       
18 30.10.14 110 (В) 7-10{11}  20000 м    10/10 150 м 
[St]
+7.8 +6.8 93 +6  1019.2  -1  724  282           
21 30.10.14 110 (В) 7{11}  20000 м    10/10 180 м 
[St]
+7.2 +6.3 94 +5  1018.1  -1.2  723  283           
00 31.10.14 120 (ЮВ) 7-10{10}  20000 м    10/10 270 м 
[St]
+7.1 +5.6 90 +5  1016.9  -1.1  722  283           
03 31.10.14 120 (ЮВ) 20000 м    10/10 200 м 
[St]
+7 +5.6 91 +5  1016.4  -0.5  722  283  +7         
06 31.10.14 120 (ЮВ) 6{10}  20000 м    10/8 300 м средняя 
[St|Ac und]
+7.6 +5.7 88 +6  1016.6  0.3  722  282  +6.9         
09 31.10.14 110 (В) 6{10}  20000 м    9/8 480 м средняя 
[Sc|Ac trans]
+10.4 +6.5 77 +9  1014.8  -1.1  721  279           
12 31.10.14 100 (В) 6{10}  20000 м    9/8 570 м средняя 
[Sc|Ac trans]
+10.3 +6.7 78 +9  1014.2  -0.6  721  279           
15 31.10.14 110 (В) 20000 м    8/3 600 м средняя 
[Sc|Ac trans]
+7.7 +6.2 90 +6  1014.9  0.2  721  281           
18 31.10.14 110 (В) 20000 м    9/4 300 м средняя 
[Sc|Ac trans]
+7.3 +6.6 95 +6  1014.4  -0.6  720  282           
21 31.10.14 100 (В) 0900 м  туман  ?/?  
+5.7 +5.1 96 +5  1013.6  -1  720  283           
00 01.11.14 110 (В) 0200 м  туман  ?/?  
+7.3 +6.7 96 +7  1012  -1.3  719  281           
03 01.11.14 140 (ЮВ) 0200 м  туман  ?/?  
+7.3 +6.7 96 +8  1011.2  -0.7  718  281  +5         
06 01.11.14 130 (ЮВ) 0400 м  туман  ?/?  
+8.2 +7.7 97 +8  1011  718  280           
09 01.11.14 тихо ()   20000 м  {туман}  10/8 540 м средняя 
[Sc|Ac und]
+8.9 +8.3 96 +9  1009.8  -1.1  717  278           
12 01.11.14 290 (З) 20000 м  {туман}  10/8 600 м средняя 
[Sc|Ac und]
+8.1 +6.1 87 +7  1009.6  -0.3  717  280           
15 01.11.14 260 (З) 3000 м  дымка  10/10 100 м 
[St]
+6.7 +6 95 +5  1010.8  0.9  718  281    +9.4       
18 01.11.14 270 (З) 6{11}  20000 м    10/10 270 м 
[St]
+7 +5.7 91 +5  1011.3  0.9  718  281           
21 01.11.14 310 (СЗ) 6-10  3000 м  ливневой дождь  10/8 240 м средняя 
[St|Ac und]
+4.9 +3.8 92 +2  1012  0.3  718  284           
00 02.11.14 320 (СЗ) 6-10{11}  0400 м  туман  ?/?  
+2 +1.3 95 -1  1013  0.4  719  287           
03 02.11.14 320 (СЗ) 2000 м  дымка{туман}  10/10 100 м 
[St]
-0.1 -1 94 -4  1014.6  0.4  719  290  -0.1       
06 02.11.14 310 (СЗ) 6{12}  10 км  {морось, туман}  9/6 200 м средняя 
[St|Ac trans]
-0.2 -2.6 84 -4  1016  1.2  720  291  -0.4         
09 02.11.14 310 (СЗ) 7-11{12}  20000 м    9/8 600 м верхняя 
[Sc|Ci fib]
+1.8 -4.1 65 -2  1016.1  0.5  721  289           
12 02.11.14 290 (З) 5{11}  4000 м  слаб. ливневой снег  9/6 180 м кучево-дожд., средняя 
[Cb cap|Ac trans]
+0.5 -2.7 79 -2  1017.7  1.2  722  291           
Время (UTC), дата Ветер
(°,м/с) 
Видим.   Явления Облачность Т
(°С)
Тd
(°С)
f(%) Тe
(°С)
Pmin
(гПа)
dP
(гПа)
Po
(мм)
O2
(г/м3)
Тmin Tmax R s Состояние
почвы